Regional Weather Roundup
Issued by NWS

Home | Current Version | Previous Version | Text Only | Print | Product List | Glossary On
Versions: 1 2 3 4 5 6 7 8 9 10 11 12 13 14 15 16 17 18 19 20 21 22 23 24 25 26 27 28 29 30 31 32 33 34 35 36 37 38 39 40 41 42 43 44 45 46 47 48 49 50
000
ASPQ40 PGUM 220612
RWRPQ
WEATHER ROUNDUP FOR THE MARIANAS AND MICRONESIA
NATIONAL WEATHER SERVICE TIYAN GU
400 PM CHST MON DEC 22 2014

GUZ001>004-220700-
MARIANA ISLANDS-

CITY           SKY/WX    TMP DP  RH WIND       PRES   REMARKS
GUAM AIRPORT   MOSUNNY   88  75  66 E20G26    29.85S HX  97
ANDERSEN AFB   MOSUNNY   82  75  78 E17       29.86S
ROTA AIRPORT   MOSUNNY   82  77  83 E17       29.88R HX  91
TINIAN AP      MOSUNNY   84  75  74 E16G23    29.86R HX  92
SAIPAN AP      MOSUNNY   84  75  74 E15G25    29.87S HX  92

$$

PMZ161-220700-
REPUBLIC OF PALAU-

CITY           SKY/WX    TMP DP  RH WIND       PRES   REMARKS
KOROR AP       PTSUNNY   88  77  70 E12       29.77F HX 100
KOROR WSO      MOSUNNY   91  77  62 NE9       29.75F HX 105

$$

PMZ171>174-220700-
FEDERATED STATES OF MICRONESIA-

CITY           SKY/WX    TMP DP  RH WIND       PRES   REMARKS
YAP AIRPORT    PTSUNNY   86  77  74 NE14      29.76S HX  97
CHUUK AP       CLOUDY    84  75  74 NE14      29.74R HX  92
POHNPEI AP     NOT AVBL
POHNPEI WSO    NOT AVBL
KOSRAE AP      NOT AVBL

$$

PMZ181-220700-
REPUBLIC OF THE MARSHALL ISLANDS-

CITY           SKY/WX    TMP DP  RH WIND       PRES   REMARKS
KWAJALEIN AP   PTCLDY    84  73  70 NE25G33   29.74R HX  91
MAJURO AP      MOCLDY    84  77  79 E21       29.70S HX  94
MAJURO WSO     MOCLDY    84  77  79 E14       29.72R HX  94

$$



USA.gov is the U.S. government's official web portal to all federal, state and local government web resources and services.